| time (UTC) | temp F | wind direction | speed knots | gust knots | rain 1hr in | rain 24hr in | rain mn in | humidity % | barometer mb |
| 20260903213005 | 67 | 194 | 0.0 | 5.2 | 0.00 | 0.00 | 0.00 | 39 | 1010.7 |
| 20260903211513 | 67 | 286 | 0.0 | 4.3 | 0.00 | 0.00 | 0.00 | 41 | 1010.8 |
| 20260903210020 | 66 | 158 | 0.9 | 6.1 | 0.00 | 0.00 | 0.00 | 42 | 1010.9 |
| 20260903204523 | 67 | 188 | 1.7 | 4.3 | 0.00 | 0.00 | 0.00 | 42 | 1011.0 |
| 20260903203017 | 67 | 223 | 3.5 | 7.0 | 0.00 | 0.00 | 0.00 | 40 | 1010.8 |
| 20260903201513 | 67 | 175 | 0.9 | 8.7 | 0.00 | 0.00 | 0.00 | 42 | 1011.0 |
| 20260903200007 | 67 | 194 | 1.7 | 4.3 | 0.00 | 0.00 | 0.00 | 42 | 1011.1 |
| 20260903194524 | 67 | 195 | 0.0 | 6.1 | 0.00 | 0.00 | 0.00 | 44 | 1011.2 |
| 20260903193028 | 66 | 144 | 0.9 | 4.3 | 0.00 | 0.00 | 0.00 | 45 | 1011.4 |
| 20260903191536 | 66 | 219 | 1.7 | 4.3 | 0.00 | 0.00 | 0.00 | 47 | 1011.4 |
| 20260903190003 | 65 | 123 | 1.7 | 5.2 | 0.00 | 0.00 | 0.00 | 51 | 1011.6 |
| 20260903184502 | 65 | 192 | 1.7 | 5.2 | 0.00 | 0.00 | 0.00 | 50 | 1011.7 |
| 20260903183007 | 66 | 178 | 1.7 | 6.1 | 0.00 | 0.00 | 0.00 | 50 | 1011.8 |
| 20260903181508 | 65 | 151 | 2.6 | 7.8 | 0.00 | 0.00 | 0.00 | 49 | 1011.8 |
| 20260903180002 | 65 | 186 | 3.5 | 9.6 | 0.00 | 0.00 | 0.00 | 50 | 1011.7 |
| 20260903174503 | 64 | 238 | 0.0 | 8.7 | 0.00 | 0.00 | 0.00 | 51 | 1011.6 |
| 20260903173003 | 64 | 253 | 0.0 | 6.1 | 0.00 | 0.00 | 0.00 | 52 | 1011.7 |
| 20260903171503 | 63 | 236 | 0.0 | 7.0 | 0.00 | 0.00 | 0.00 | 53 | 1011.7 |
| 20260903170003 | 61 | 156 | 2.6 | 10.4 | 0.00 | 0.00 | 0.00 | 55 | 1011.7 |
| 20260903164503 | 60 | 160 | 2.6 | 9.6 | 0.00 | 0.00 | 0.00 | 60 | 1011.6 |
| 20260903163004 | 60 | 148 | 3.5 | 8.7 | 0.00 | 0.00 | 0.00 | 61 | 1011.5 |
| 20260903161506 | 59 | 196 | 4.3 | 10.4 | 0.00 | 0.00 | 0.00 | 60 | 1011.7 |
| 20260903160005 | 59 | 190 | 5.2 | 11.3 | 0.00 | 0.00 | 0.00 | 60 | 1011.4 |
| 20260903154503 | 58 | 210 | 3.5 | 8.7 | 0.00 | 0.00 | 0.00 | 63 | 1011.3 |
| 20260903153003 | 58 | 189 | 4.3 | 10.4 | 0.00 | 0.00 | 0.00 | 66 | 1011.3 |
| 20260903151509 | 57 | 146 | 4.3 | 10.4 | 0.00 | 0.00 | 0.00 | 70 | 1011.3 |
| 20260903150014 | 56 | 126 | 4.3 | 10.4 | 0.00 | 0.00 | 0.00 | 72 | 1011.3 |
| 20260903144515 | 55 | 152 | 5.2 | 13.0 | 0.00 | 0.00 | 0.00 | 77 | 1011.4 |
| 20260903143011 | 54 | 169 | 4.3 | 9.6 | 0.00 | 0.00 | 0.00 | 80 | 1011.3 |
| 20260903141506 | 53 | 216 | 3.5 | 9.6 | 0.00 | 0.00 | 0.00 | 84 | 1011.2 |
| 20260903140010 | 52 | 232 | 3.5 | 10.4 | 0.00 | 0.00 | 0.00 | 85 | 1011.2 |
| 20260903134510 | 52 | 172 | 4.3 | 8.7 | 0.00 | 0.00 | 0.00 | 85 | 1011.2 |
| 20260903133015 | 52 | 194 | 3.5 | 9.6 | 0.00 | 0.00 | 0.00 | 85 | 1011.0 |
| 20260903131518 | 52 | 194 | 4.3 | 12.2 | 0.00 | 0.00 | 0.00 | 85 | 1011.0 |
| 20260903130012 | 53 | 209 | 4.3 | 11.3 | 0.00 | 0.00 | 0.00 | 86 | 1010.9 |
| 20260903124506 | 53 | 135 | 3.5 | 9.6 | 0.00 | 0.00 | 0.00 | 87 | 1010.7 |
| 20260903123008 | 53 | 111 | 4.3 | 9.6 | 0.00 | 0.00 | 0.00 | 87 | 1010.8 |
| 20260903121526 | 53 | 152 | 3.5 | 8.7 | 0.00 | 0.00 | 0.00 | 86 | 1010.8 |
| 20260903120038 | 54 | 193 | 3.5 | 9.6 | 0.00 | 0.00 | 0.00 | 86 | 1010.8 |
| 20260903114521 | 54 | 165 | 2.6 | 7.8 | 0.00 | 0.00 | 0.00 | 85 | 1010.4 |
| 20260903113012 | 55 | 162 | 2.6 | 7.0 | 0.00 | 0.00 | 0.00 | 84 | 1010.5 |
| 20260903111517 | 55 | 165 | 2.6 | 7.8 | 0.00 | 0.00 | 0.00 | 84 | 1010.3 |
| 20260903110011 | 56 | 184 | 5.2 | 9.6 | 0.00 | 0.00 | 0.00 | 85 | 1010.0 |
| 20260903104529 | 56 | 157 | 3.5 | 8.7 | 0.00 | 0.00 | 0.00 | 85 | 1010.0 |
| 20260903103031 | 56 | 163 | 2.6 | 7.8 | 0.00 | 0.00 | 0.00 | 86 | 1010.1 |
| 20260903101515 | 56 | 163 | 2.6 | 7.8 | 0.00 | 0.00 | 0.00 | 85 | 1010.1 |
| 20260903100003 | 56 | 192 | 3.5 | 8.7 | 0.00 | 0.00 | 0.00 | 85 | 1010.0 |
| 20260903094503 | 56 | 188 | 2.6 | 9.6 | 0.00 | 0.00 | 0.00 | 84 | 1009.9 |
| 20260903093002 | 57 | 63 | 2.6 | 9.6 | 0.00 | 0.00 | 0.00 | 84 | 1010.0 |
| 20260903091502 | 57 | 175 | 4.3 | 10.4 | 0.00 | 0.00 | 0.00 | 83 | 1009.8 |
| 20260903090003 | 57 | 168 | 3.5 | 9.6 | 0.00 | 0.00 | 0.00 | 82 | 1009.5 |
| 20260903084504 | 57 | 166 | 4.3 | 9.6 | 0.00 | 0.00 | 0.00 | 82 | 1009.3 |
| 20260903083005 | 57 | 177 | 3.5 | 9.6 | 0.00 | 0.00 | 0.00 | 81 | 1009.4 |
| 20260903081503 | 57 | 223 | 4.3 | 10.4 | 0.00 | 0.00 | 0.00 | 83 | 1009.2 |
| 20260903080003 | 57 | 183 | 2.6 | 8.7 | 0.00 | 0.00 | 0.00 | 84 | 1009.0 |
| 20260903074506 | 56 | 170 | 4.3 | 10.4 | 0.00 | 0.00 | 0.00 | 84 | 1009.0 |
| 20260903073004 | 56 | 275 | 4.3 | 8.7 | 0.00 | 0.00 | 0.00 | 85 | 1009.0 |
| 20260903071508 | 56 | 175 | 4.3 | 10.4 | 0.00 | 0.00 | 0.00 | 84 | 1009.1 |
| 20260903070014 | 57 | 161 | 4.3 | 10.4 | 0.00 | 0.00 | 0.00 | 83 | 1008.9 |
| 20260903064503 | 57 | 260 | 5.2 | 12.2 | 0.00 | 0.00 | 0.00 | 83 | 1008.7 |
| 20260903063005 | 57 | 194 | 5.2 | 14.8 | 0.00 | 0.00 | 0.00 | 82 | 1008.5 |
| 20260903061504 | 57 | 219 | 5.2 | 13.0 | 0.00 | 0.00 | 0.00 | 81 | 1008.6 |
| 20260903060013 | 58 | 134 | 7.0 | 13.9 | 0.00 | 0.00 | 0.00 | 78 | 1008.6 |
| 20260903054518 | 58 | 123 | 4.3 | 12.2 | 0.00 | 0.00 | 0.00 | 79 | 1008.7 |
| 20260903053003 | 59 | 163 | 5.2 | 13.0 | 0.00 | 0.00 | 0.00 | 80 | 1008.7 |
| 20260903051506 | 59 | 59 | 5.2 | 13.0 | 0.00 | 0.00 | 0.00 | 78 | 1008.7 |
| 20260903050004 | 60 | 196 | 4.3 | 14.8 | 0.00 | 0.00 | 0.00 | 76 | 1008.8 |
| 20260903044504 | 60 | 181 | 6.1 | 10.4 | 0.00 | 0.00 | 0.00 | 76 | 1008.6 |
| 20260903043022 | 60 | 153 | 4.3 | 9.6 | 0.00 | 0.00 | 0.00 | 78 | 1008.5 |
| 20260903041505 | 60 | 126 | 5.2 | 13.0 | 0.00 | 0.00 | 0.00 | 78 | 1008.5 |
| 20260903040004 | 60 | 206 | 4.3 | 11.3 | 0.00 | 0.00 | 0.00 | 78 | 1008.4 |
| 20260903034510 | 61 | 212 | 3.5 | 7.8 | 0.00 | 0.00 | 0.00 | 76 | 1008.5 |
| 20260903033014 | 61 | 175 | 3.5 | 10.4 | 0.00 | 0.00 | 0.00 | 75 | 1008.4 |
| 20260903031527 | 61 | 230 | 3.5 | 10.4 | 0.00 | 0.00 | 0.00 | 74 | 1008.4 |
| 20260903030009 | 61 | 196 | 4.3 | 8.7 | 0.00 | 0.00 | 0.00 | 73 | 1008.2 |
| 20260903024510 | 61 | 188 | 4.3 | 7.8 | 0.00 | 0.00 | 0.00 | 75 | 1008.0 |
| 20260903023015 | 62 | 130 | 2.6 | 8.7 | 0.00 | 0.00 | 0.00 | 72 | 1007.9 |
| 20260903021516 | 63 | 225 | 1.7 | 7.0 | 0.00 | 0.00 | 0.00 | 67 | 1008.2 |
| 20260903020029 | 64 | 177 | 2.6 | 10.4 | 0.00 | 0.00 | 0.00 | 64 | 1008.2 |
| 20260903014536 | 64 | 157 | 2.6 | 9.6 | 0.00 | 0.00 | 0.00 | 62 | 1008.0 |
| 20260903013013 | 64 | 256 | 1.7 | 10.4 | 0.00 | 0.00 | 0.00 | 61 | 1008.0 |
| 20260903011520 | 64 | 205 | 4.3 | 11.3 | 0.00 | 0.00 | 0.00 | 60 | 1007.8 |
| 20260903010029 | 65 | 225 | 3.5 | 10.4 | 0.00 | 0.00 | 0.00 | 58 | 1007.4 |
| 20260903004506 | 65 | 238 | 1.7 | 14.8 | 0.00 | 0.00 | 0.00 | 57 | 1007.4 |
| 20260903003003 | 65 | 190 | 1.7 | 9.6 | 0.00 | 0.00 | 0.00 | 58 | 1007.4 |
| 20260903001504 | 65 | 230 | 0.0 | 9.6 | 0.00 | 0.00 | 0.00 | 60 | 1007.5 |
| 20260903000003 | 66 | 292 | 3.5 | 13.0 | 0.00 | 0.00 | 0.00 | 55 | 1007.4 |
| 20260902234504 | 67 | 134 | 1.7 | 12.2 | 0.00 | 0.00 | 0.00 | 51 | 1007.4 |
| 20260902233004 | 68 | 202 | 1.7 | 8.7 | 0.00 | 0.00 | 0.00 | 50 | 1007.4 |
| 20260902231503 | 68 | 224 | 1.7 | 6.1 | 0.00 | 0.00 | 0.00 | 53 | 1007.4 |
| 20260902230003 | 66 | 186 | 0.0 | 5.2 | 0.00 | 0.00 | 0.00 | 59 | 1007.4 |
| 20260902224504 | 66 | 188 | 1.7 | 8.7 | 0.00 | 0.00 | 0.00 | 61 | 1007.5 |
| 20260902223007 | 70 | 184 | 1.7 | 12.2 | 0.00 | 0.00 | 0.00 | 55 | 1007.3 |
| 20260902221508 | 74 | 187 | 0.0 | 3.5 | 0.00 | 0.00 | 0.00 | 42 | 1006.8 |
| 20260902220006 | 74 | 99 | 0.0 | 0.9 | 0.00 | 0.00 | 0.00 | 45 | 1006.7 |
| 20260902214509 | 75 | 99 | 0.0 | 1.7 | 0.00 | 0.00 | 0.00 | 43 | 1006.8 |